Time,TemperatureF,DewpointF,PressureIn,WindDirection,WindDirectionDegrees,WindSpeedMPH,WindSpeedGustMPH,Humidity,HourlyPrecipIn,Conditions,Clouds,dailyrainin,SolarRadiationWatts/m^2,SoftwareType,DateUTC
2013-06-28 00:21:00,57.0,46.0,-100.00,WNW,292,1.0,-999.0,66,0.00,,,-99.99,4.000000,,2013-06-28 08:21:00,
2013-06-28 00:33:00,57.0,46.0,-100.00,WNW,292,1.0,-999.0,66,0.00,,,-99.99,4.000000,,2013-06-28 08:33:00,
2013-06-28 00:43:00,57.0,46.0,-100.00,WNW,292,1.0,-999.0,66,0.00,,,-99.99,4.000000,,2013-06-28 08:43:00,
2013-06-28 00:52:00,57.0,46.0,-100.00,WNW,292,1.0,-999.0,66,0.00,,,-99.99,4.000000,,2013-06-28 08:52:00,
2013-06-28 01:33:00,54.0,46.0,-100.00,WSW,255,0.0,-999.0,74,0.00,,,-99.99,2.000000,,2013-06-28 09:33:00,
2013-06-28 01:42:00,54.0,46.0,-100.00,WSW,255,0.0,-999.0,74,0.00,,,-99.99,2.000000,,2013-06-28 09:42:00,
2013-06-28 01:52:00,54.0,46.0,-100.00,WSW,255,0.0,-999.0,74,0.00,,,-99.99,2.000000,,2013-06-28 09:52:00,
2013-06-28 02:22:00,54.0,47.0,-100.00,SW,225,0.0,197.0,76,0.00,,,-99.99,1.000000,,2013-06-28 10:22:00,
2013-06-28 02:33:00,54.0,47.0,-100.00,SW,225,0.0,197.0,76,0.00,,,-99.99,1.000000,,2013-06-28 10:33:00,
2013-06-28 02:42:00,54.0,47.0,-100.00,SW,225,0.0,197.0,76,0.00,,,-99.99,1.000000,,2013-06-28 10:42:00,
2013-06-28 02:52:00,54.0,47.0,-100.00,SW,225,0.0,197.0,76,0.00,,,-99.99,1.000000,,2013-06-28 10:52:00,
2013-06-28 03:22:00,54.0,47.0,-100.00,SSW,202,0.0,-999.0,76,0.00,,,-99.99,2.000000,,2013-06-28 11:22:00,
2013-06-28 03:34:00,54.0,47.0,-100.00,SSW,202,0.0,-999.0,76,0.00,,,-99.99,2.000000,,2013-06-28 11:34:00,
2013-06-28 03:43:00,54.0,47.0,-100.00,SSW,202,0.0,-999.0,76,0.00,,,-99.99,2.000000,,2013-06-28 11:43:00,
2013-06-28 03:53:00,54.0,47.0,-100.00,SSW,202,0.0,-999.0,76,0.00,,,-99.99,2.000000,,2013-06-28 11:53:00,
2013-06-28 05:43:00,55.0,47.0,-100.00,SSW,210,0.0,2.0,74,-99.99,,,-99.99,5.000000,,2013-06-28 13:43:00,
2013-06-28 05:53:00,55.0,47.0,-100.00,SSW,210,0.0,2.0,74,-99.99,,,-99.99,5.000000,,2013-06-28 13:53:00,
2013-06-28 06:22:00,55.0,48.0,-100.00,South,182,0.0,1.0,77,0.00,,,-99.99,14.000000,,2013-06-28 14:22:00,
2013-06-28 06:33:00,55.0,48.0,-100.00,South,182,0.0,1.0,77,0.00,,,-99.99,14.000000,,2013-06-28 14:33:00,
2013-06-28 06:44:00,55.0,48.0,-100.00,South,182,0.0,1.0,77,0.00,,,-99.99,14.000000,,2013-06-28 14:44:00,
2013-06-28 06:53:00,55.0,48.0,-100.00,South,182,0.0,1.0,77,0.00,,,-99.99,14.000000,,2013-06-28 14:53:00,
2013-06-28 07:24:00,56.0,47.0,-100.00,North,359,0.0,1.0,72,0.00,,,-99.99,33.000000,,2013-06-28 15:24:00,
2013-06-28 07:33:00,56.0,47.0,-100.00,North,359,0.0,1.0,72,0.00,,,-99.99,33.000000,,2013-06-28 15:33:00,
2013-06-28 07:43:00,56.0,47.0,-100.00,North,359,0.0,1.0,72,0.00,,,-99.99,33.000000,,2013-06-28 15:43:00,
2013-06-28 07:52:00,56.0,47.0,-100.00,North,359,0.0,1.0,72,0.00,,,-99.99,33.000000,,2013-06-28 15:52:00,
2013-06-28 08:53:00,57.0,47.0,-100.00,NW,324,0.0,1.0,69,0.00,,,-99.99,68.000000,,2013-06-28 16:53:00,
2013-06-28 09:22:00,57.0,46.0,-100.00,West,277,1.0,2.0,66,0.00,,,-99.99,93.000000,,2013-06-28 17:22:00,
2013-06-28 09:33:00,57.0,46.0,-100.00,West,277,1.0,2.0,66,0.00,,,-99.99,93.000000,,2013-06-28 17:33:00,
2013-06-28 09:44:00,57.0,46.0,-100.00,West,277,1.0,2.0,66,0.00,,,-99.99,93.000000,,2013-06-28 17:44:00,
2013-06-28 09:52:00,57.0,46.0,-100.00,West,277,1.0,2.0,66,0.00,,,-99.99,93.000000,,2013-06-28 17:52:00,
2013-06-28 10:43:00,60.0,47.0,-100.00,WSW,257,1.0,3.0,63,0.00,,,-99.99,202.000000,,2013-06-28 18:43:00,
2013-06-28 10:52:00,60.0,47.0,-100.00,WSW,257,1.0,3.0,63,0.00,,,-99.99,202.000000,,2013-06-28 18:52:00,
2013-06-28 11:22:00,60.0,47.0,-100.00,WSW,258,2.0,4.0,62,0.00,,,-99.99,202.000000,,2013-06-28 19:22:00,
2013-06-28 11:33:00,60.0,47.0,-100.00,WSW,258,2.0,4.0,62,0.00,,,-99.99,202.000000,,2013-06-28 19:33:00,
2013-06-28 11:43:00,60.0,47.0,-100.00,WSW,258,2.0,4.0,62,0.00,,,-99.99,202.000000,,2013-06-28 19:43:00,
2013-06-28 11:53:00,60.0,47.0,-100.00,WSW,258,2.0,4.0,62,0.00,,,-99.99,202.000000,,2013-06-28 19:53:00,
2013-06-28 12:22:00,62.0,48.0,-100.00,WSW,253,1.0,4.0,61,0.00,,,-99.99,210.000000,,2013-06-28 20:22:00,
2013-06-28 12:33:00,62.0,48.0,-100.00,WSW,253,1.0,4.0,61,0.00,,,-99.99,210.000000,,2013-06-28 20:33:00,
2013-06-28 12:43:00,62.0,48.0,-100.00,WSW,253,1.0,4.0,61,0.00,,,-99.99,210.000000,,2013-06-28 20:43:00,
2013-06-28 12:52:00,62.0,48.0,-100.00,WSW,253,1.0,4.0,61,0.00,,,-99.99,210.000000,,2013-06-28 20:52:00,
2013-06-28 13:34:00,62.0,48.0,-100.00,WSW,258,1.0,3.0,60,0.00,,,-99.99,230.000000,,2013-06-28 21:34:00,
2013-06-28 13:43:00,62.0,48.0,-100.00,WSW,258,1.0,3.0,60,0.00,,,-99.99,230.000000,,2013-06-28 21:43:00,
2013-06-28 13:53:00,62.0,48.0,-100.00,WSW,258,1.0,3.0,60,0.00,,,-99.99,230.000000,,2013-06-28 21:53:00,
2013-06-28 14:22:00,62.0,48.0,-100.00,SW,233,1.0,3.0,61,0.00,,,-99.99,185.000000,,2013-06-28 22:22:00,
2013-06-28 14:34:00,62.0,48.0,-100.00,SW,233,1.0,3.0,61,0.00,,,-99.99,185.000000,,2013-06-28 22:34:00,
2013-06-28 14:43:00,62.0,48.0,-100.00,SW,233,1.0,3.0,61,0.00,,,-99.99,185.000000,,2013-06-28 22:43:00,
2013-06-28 14:52:00,62.0,48.0,-100.00,SW,233,1.0,3.0,61,0.00,,,-99.99,185.000000,,2013-06-28 22:52:00,
2013-06-28 15:23:00,62.0,48.0,-100.00,West,264,1.0,2.0,61,0.00,,,-99.99,155.000000,,2013-06-28 23:23:00,
2013-06-28 15:34:00,62.0,48.0,-100.00,West,264,1.0,2.0,61,0.00,,,-99.99,155.000000,,2013-06-28 23:34:00,
2013-06-28 15:43:00,62.0,48.0,-100.00,West,264,1.0,2.0,61,0.00,,,-99.99,155.000000,,2013-06-28 23:43:00,
2013-06-28 15:53:00,62.0,48.0,-100.00,West,264,1.0,2.0,61,0.00,,,-99.99,155.000000,,2013-06-28 23:53:00,
2013-06-28 16:22:00,61.0,48.0,-100.00,West,274,1.0,3.0,62,0.00,,,0.00,140.000000,,2013-06-29 00:22:00,
2013-06-28 16:33:00,61.0,48.0,-100.00,West,274,1.0,3.0,62,0.00,,,0.00,140.000000,,2013-06-29 00:33:00,
2013-06-28 16:42:00,61.0,48.0,-100.00,West,274,1.0,3.0,62,0.00,,,0.00,140.000000,,2013-06-29 00:42:00,
2013-06-28 16:52:00,61.0,48.0,-100.00,West,274,1.0,3.0,62,0.00,,,0.00,140.000000,,2013-06-29 00:52:00,
2013-06-28 17:22:00,62.0,48.0,-100.00,WNW,282,1.0,3.0,61,0.00,,,0.00,180.000000,,2013-06-29 01:22:00,
2013-06-28 17:31:00,62.0,48.0,-100.00,WNW,282,1.0,3.0,61,0.00,,,0.00,180.000000,,2013-06-29 01:31:00,
2013-06-28 17:42:00,62.0,48.0,-100.00,WNW,282,1.0,3.0,61,0.00,,,0.00,180.000000,,2013-06-29 01:42:00,
2013-06-28 17:51:00,62.0,48.0,-100.00,WNW,282,1.0,3.0,61,0.00,,,0.00,180.000000,,2013-06-29 01:51:00,
2013-06-28 18:21:00,60.0,47.0,-100.00,West,259,2.0,3.0,63,0.00,,,0.00,108.000000,,2013-06-29 02:21:00,
2013-06-28 18:31:00,60.0,47.0,-100.00,West,259,2.0,3.0,63,0.00,,,0.00,108.000000,,2013-06-29 02:31:00,
2013-06-28 18:41:00,60.0,47.0,-100.00,West,259,2.0,3.0,63,0.00,,,0.00,108.000000,,2013-06-29 02:41:00,
2013-06-28 18:51:00,60.0,47.0,-100.00,West,259,2.0,3.0,63,0.00,,,0.00,108.000000,,2013-06-29 02:51:00,
2013-06-28 19:21:00,60.0,48.0,-100.00,WSW,245,1.0,3.0,65,0.00,,,0.00,68.000000,,2013-06-29 03:21:00,
2013-06-28 19:32:00,60.0,48.0,-100.00,WSW,245,1.0,3.0,65,0.00,,,0.00,68.000000,,2013-06-29 03:32:00,
2013-06-28 19:41:00,60.0,48.0,-100.00,WSW,245,1.0,3.0,65,0.00,,,0.00,68.000000,,2013-06-29 03:41:00,
2013-06-28 19:51:00,60.0,48.0,-100.00,WSW,245,1.0,3.0,65,0.00,,,0.00,68.000000,,2013-06-29 03:51:00,
2013-06-28 20:22:00,59.0,49.0,-100.00,South,191,0.0,2.0,69,0.00,,,0.00,66.000000,,2013-06-29 04:22:00,
2013-06-28 20:31:00,59.0,49.0,-100.00,South,191,0.0,2.0,69,0.00,,,0.00,66.000000,,2013-06-29 04:31:00,
2013-06-28 20:41:00,59.0,49.0,-100.00,South,191,0.0,2.0,69,0.00,,,0.00,66.000000,,2013-06-29 04:41:00,
2013-06-28 20:51:00,59.0,49.0,-100.00,South,191,0.0,2.0,69,0.00,,,0.00,66.000000,,2013-06-29 04:51:00,
2013-06-28 21:31:00,58.0,50.0,-100.00,SW,219,0.0,1.0,75,0.00,,,0.00,15.000000,,2013-06-29 05:31:00,
2013-06-28 21:41:00,58.0,50.0,-100.00,SW,219,0.0,1.0,75,0.00,,,0.00,15.000000,,2013-06-29 05:41:00,
2013-06-28 21:51:00,58.0,50.0,-100.00,SW,219,0.0,1.0,75,0.00,,,0.00,15.000000,,2013-06-29 05:51:00,
2013-06-28 22:33:00,56.0,51.0,-100.00,WSW,243,0.0,1.0,83,0.00,,,0.00,10.000000,,2013-06-29 06:33:00,
2013-06-28 22:43:00,56.0,51.0,-100.00,WSW,243,0.0,1.0,83,0.00,,,0.00,10.000000,,2013-06-29 06:43:00,
2013-06-28 22:53:00,56.0,51.0,-100.00,WSW,243,0.0,1.0,83,0.00,,,0.00,10.000000,,2013-06-29 06:53:00,
2013-06-28 23:22:00,55.0,52.0,-100.00,South,186,0.0,1.0,88,0.00,,,0.00,5.000000,,2013-06-29 07:22:00,
2013-06-28 23:33:00,55.0,52.0,-100.00,South,186,0.0,1.0,88,0.00,,,0.00,5.000000,,2013-06-29 07:33:00,
2013-06-28 23:43:00,55.0,52.0,-100.00,South,186,0.0,1.0,88,0.00,,,0.00,5.000000,,2013-06-29 07:43:00,
2013-06-28 23:53:00,55.0,52.0,-100.00,South,186,0.0,1.0,88,0.00,,,0.00,5.000000,,2013-06-29 07:53:00,